WA6MHA-11 Weather Reports


Display with metric or nautical units.
time (UTC)temp
F
wind
direction
speed
MPH
gust
MPH
rain 1hr
in
rain 24hr
in
rain mn
in
humidity
%
barometer
mb
20260502130419 53 135 0.0 0.0 0.00 0.00 0.00 60 1015.1
20260502123209 51 85 0.0 1.0 0.00 0.00 0.00 60 1014.9
20260502122808 51 135 0.0 2.0 0.00 0.00 0.00 60 1014.8
20260502122407 51 135 1.0 2.0 0.00 0.00 0.00 60 1014.8
20260502121604 50 182 0.0 1.0 0.00 0.00 0.00 60 1014.7
20260502121202 50 135 1.0 1.0 0.00 0.00 0.00 60 1014.7
20260502120801 49 164 1.0 1.0 0.00 0.00 0.00 59 1014.8
20260502120401 49 135 1.0 2.0 0.00 0.00 0.00 59 1014.8
20260502115558 49 83 0.0 0.0 0.00 0.00 0.00 59 1014.8
20260502115156 49 78 0.0 0.0 0.00 0.00 0.00 59 1014.6
20260502114755 50 81 0.0 0.0 0.00 0.00 0.00 59 1014.6
20260502114354 50 81 0.0 0.0 0.00 0.00 0.00 59 1014.6
20260502113953 50 81 0.0 0.0 0.00 0.00 0.00 59 1014.5
20260502113552 49 81 0.0 0.0 0.00 0.00 0.00 59 1014.5
20260502112748 49 42 0.0 1.0 0.00 0.00 0.00 59 1014.4
20260502112347 49 81 0.0 0.0 0.00 0.00 0.00 59 1014.4
20260502111545 49 78 0.0 0.0 0.00 0.00 0.00 59 1014.5
20260502111143 50 42 0.0 0.0 0.00 0.00 0.00 59 1014.4
20260502110742 50 42 0.0 0.0 0.00 0.00 0.00 59 1014.3
20260502110340 50 81 0.0 0.0 0.00 0.00 0.00 59 1014.3
20260502105939 50 85 0.0 0.0 0.00 0.00 0.00 59 1014.3
20260502105538 50 81 0.0 0.0 0.00 0.00 0.00 59 1014.3
20260502104336 50 342 0.0 0.0 0.00 0.00 0.00 59 1014.2
20260502103933 50 315 0.0 0.0 0.00 0.00 0.00 59 1014.2
20260502103534 51 301 0.0 0.0 0.00 0.00 0.00 59 1014.2
20260502103131 51 306 0.0 0.0 0.00 0.00 0.00 59 1014.2
20260502100325 51 328 0.0 0.0 0.00 0.00 0.00 58 1014.3
20260502091508 53 301 0.0 0.0 0.00 0.00 0.00 1014.5
20260502091506 53 301 0.0 0.0 0.00 0.00 0.00 58 1014.5
20260502091104 53 310 0.0 0.0 0.00 0.00 0.00 58 1014.6
20260502090703 53 301 0.0 0.0 0.00 0.00 0.00 58 1014.6
20260502090302 53 310 0.0 0.0 0.00 0.00 0.00 57 1014.7
20260502071428 56 42 0.0 0.0 0.00 0.00 0.00 55 1015.5
20260502071026 56 45 0.0 0.0 0.00 0.00 0.00 55 1015.4
20260502070625 56 45 0.0 0.0 0.00 0.00 0.00 55 1015.3
20260502070224 56 40 0.0 0.0 0.00 0.00 0.00 55 1015.4
20260502065822 56 42 0.0 0.0 0.00 0.00 0.00 55 1015.4
20260502065421 56 40 0.0 0.0 0.00 0.00 0.00 55 1015.4
20260502065023 57 38 0.0 0.0 0.00 0.00 0.00 55 1015.4
20260502064619 57 45 0.0 0.0 0.00 0.00 0.00 55 1015.0
20260502064217 57 45 0.0 0.0 0.00 0.00 0.00 54 1015.3
20260502063816 57 45 0.0 0.0 0.00 0.00 0.00 54 1015.3
20260502063014 57 45 0.0 0.0 0.00 0.00 0.00 54 1015.2
20260502062615 57 38 0.0 0.0 0.00 0.00 0.00 54 1015.2
20260502062211 57 40 0.0 0.0 0.00 0.00 0.00 54 1015.2
20260502061810 58 83 0.0 0.0 0.00 0.00 0.00 54 1015.1
20260502061408 58 76 0.0 0.0 0.00 0.00 0.00 53 1015.2
20260502061007 58 76 0.0 0.0 0.00 0.00 0.00 53 1015.2
20260502060607 58 83 0.0 1.0 0.00 0.00 0.00 53 1015.2
20260502055803 58 135 2.0 2.0 0.00 0.00 0.00 53 1015.1
20260502055401 58 135 2.0 2.0 0.00 0.00 0.00 53 1015.1
20260502055003 58 135 1.0 3.0 0.00 0.00 0.00 53 1015.1
20260502054559 58 135 2.0 2.0 0.00 0.00 0.00 53 1015.2
20260502054158 58 83 2.0 2.0 0.00 0.00 0.00 53 1015.2
20260502053757 58 90 2.0 2.0 0.00 0.00 0.00 52 1015.2
20260502053355 58 81 2.0 2.0 0.00 0.00 0.00 52 1015.2
20260502052954 58 90 2.0 2.0 0.00 0.00 0.00 52 1015.3
20260502052553 58 135 2.0 2.0 0.00 0.00 0.00 52 1015.3
20260502052152 59 135 2.0 2.0 0.00 0.00 0.00 52 1015.3
20260502051750 59 135 2.0 3.0 0.00 0.00 0.00 52 1015.2
20260502051349 59 135 2.0 2.0 0.00 0.00 0.00 51 1015.2
20260502050947 59 130 2.0 2.0 0.00 0.00 0.00 51 1015.1
20260502050546 59 135 2.0 3.0 0.00 0.00 0.00 51 1015.1
20260502045744 59 135 2.0 3.0 0.00 0.00 0.00 51 1015.0
20260502045343 59 135 2.0 3.0 0.00 0.00 0.00 51 1015.0
20260502044942 60 135 2.0 3.0 0.00 0.00 0.00 50 1015.0
20260502044539 60 135 2.0 2.0 0.00 0.00 0.00 50 1015.0
20260502044138 60 135 2.0 4.0 0.00 0.00 0.00 50 1014.9
20260502043739 60 103 3.0 4.0 0.00 0.00 0.00 50 1014.9
20260502043337 60 135 3.0 5.0 0.00 0.00 0.00 49 1014.8
20260502042534 61 110 4.0 4.0 0.00 0.00 0.00 49 1014.7
20260502041731 61 135 2.0 2.0 0.00 0.00 0.00 48 1014.5
20260502041330 61 135 2.0 4.0 0.00 0.00 0.00 48 1014.5
20260502035724 63 123 2.0 4.0 0.00 0.00 0.00 47 1014.3
20260502035323 63 135 2.0 5.0 0.00 0.00 0.00 47 1014.2
20260502034927 63 135 4.0 4.0 0.00 0.00 0.00 46 1014.0
20260502034521 63 135 4.0 4.0 0.00 0.00 0.00 46 1014.1
20260502034126 64 135 3.0 3.0 0.00 0.00 0.00 45 1014.0
20260502033719 65 135 3.0 3.0 0.00 0.00 0.00 45 1013.9
20260502033318 65 135 2.0 2.0 0.00 0.00 0.00 45 1013.9
20260502032915 65 135 1.0 2.0 0.00 0.00 0.00 44 1013.7
20260502032514 65 108 1.0 6.0 0.00 0.00 0.00 44 1013.6
20260502032113 66 96 3.0 3.0 0.00 0.00 0.00 43 1013.6
20260502031712 66 177 0.0 1.0 0.00 0.00 0.00 43 1013.5
20260502031313 66 135 2.0 4.0 0.00 0.00 0.00 42 1013.4
20260502030508 67 135 3.0 3.0 0.00 0.00 0.00 41 1013.4
20260502030106 67 135 2.0 4.0 0.00 0.00 0.00 41 1013.4
20260502025705 67 103 2.0 4.0 0.00 0.00 0.00 40 1013.3
20260502025306 68 135 2.0 3.0 0.00 0.00 0.00 40 1013.3
20260502024100 69 135 3.0 4.0 0.00 0.00 0.00 38 1013.3
20260502023700 70 135 3.0 3.0 0.00 0.00 0.00 38 1013.2
20260502022858 71 117 2.0 3.0 0.00 0.00 0.00 37 1013.1
20260502022456 71 135 3.0 4.0 0.00 0.00 0.00 36 1013.0
20260502022054 72 112 3.0 4.0 0.00 0.00 0.00 36 1013.0
20260502021652 72 130 2.0 4.0 0.00 0.00 0.00 36 1013.0
20260502021251 73 135 3.0 4.0 0.00 0.00 0.00 35 1013.0
20260502020854 73 135 3.0 3.0 0.00 0.00 0.00 35 1012.9
20260502020048 74 135 3.0 4.0 0.00 0.00 0.00 34 1012.8
20260502014442 75 128 3.0 4.0 0.00 0.00 0.00 33 1012.7
20260502014041 76 119 4.0 5.0 0.00 0.00 0.00 32 1012.7
20260502013640 76 123 4.0 4.0 0.00 0.00 0.00 32 1012.7
20260502012837 76 128 4.0 5.0 0.00 0.00 0.00 32 1012.7
20260502012436 76 128 4.0 5.0 0.00 0.00 0.00 32 1012.6
20260502012035 76 135 4.0 5.0 0.00 0.00 0.00 31 1012.7
20260502011636 76 135 5.0 6.0 0.00 0.00 0.00 31 1012.7
20260502011233 76 135 5.0 6.0 0.00 0.00 0.00 31 1012.7
20260502010835 76 123 5.0 5.0 0.00 0.00 0.00 31 1012.7
20260502005628 76 137 7.0 8.0 0.00 0.00 0.00 30 1012.7
20260502005227 77 128 6.0 8.0 0.00 0.00 0.00 30 1012.7
20260502004824 78 141 6.0 7.0 0.00 0.00 0.00 30 1012.8
20260502004423 78 135 7.0 8.0 0.00 0.00 0.00 29 1012.7
20260502004021 79 139 7.0 7.0 0.00 0.00 0.00 29 1012.6
20260502003625 79 135 7.0 7.0 0.00 0.00 0.00 29 1012.8
20260502003314 80 135 5.0 5.0 0.00 0.00 0.00 29 1012.7
20260502003220 80 135 5.0 5.0 0.00 0.00 0.00 29 1012.7
20260502002819 81 108 3.0 7.0 0.00 0.00 0.00 29 1012.7
20260502002016 82 153 3.0 5.0 0.00 0.00 0.00 28 1012.6
20260502001621 83 200 4.0 6.0 0.00 0.00 0.00 29 1012.6
20260502001212 83 182 1.0 7.0 0.00 0.00 0.00 29 1012.7
20260502000853 83 193 3.0 7.0 0.00 0.00 0.00 29 1012.6
20260502000818 83 193 3.0 7.0 0.00 0.00 0.00 29 1012.6
20260502000410 82 153 5.0 7.0 0.00 0.00 0.00 28 1012.7
20260502000014 82 189 7.0 8.0 0.00 0.00 0.00 28 1012.7
20260501235206 80 139 7.0 10.0 0.00 0.00 0.00 29 1012.7
20260501234805 83 189 5.0 7.0 0.00 0.00 0.00 28 1012.7
20260501234404 83 137 3.0 8.0 0.00 0.00 0.00 28 1012.6
20260501234002 84 152 6.0 18.0 0.00 0.00 0.00 28 1012.7
20260501233159 85 170 3.0 9.0 0.00 0.00 0.00 28 1012.7
20260501231956 85 188 6.0 8.0 0.00 0.00 0.00 28 1012.6
20260501231555 85 146 5.0 7.0 0.00 0.00 0.00 27 1012.6
20260501231155 83 135 3.0 9.0 0.00 0.00 0.00 27 1012.6
20260501230751 82 139 8.0 13.0 0.00 0.00 0.00 28 1012.6
20260501230350 83 139 5.0 12.0 0.00 0.00 0.00 27 1012.6
20260501225950 83 135 8.0 11.0 0.00 0.00 0.00 27 1012.7
20260501225548 86 123 7.0 9.0 0.00 0.00 0.00 27 1012.8
20260501224748 87 182 8.0 8.0 0.00 0.00 0.00 27 1012.7
20260501223943 87 180 5.0 7.0 0.00 0.00 0.00 27 1012.8
20260501223542 87 180 3.0 7.0 0.00 0.00 0.00 27 1012.9
20260501222739 86 191 3.0 8.0 0.00 0.00 0.00 27 1013.0
20260501221936 87 128 8.0 8.0 0.00 0.00 0.00 27 1013.2
20260501221137 87 144 1.0 7.0 0.00 0.00 0.00 27 1013.4
20260501215132 85 193 4.0 7.0 0.00 0.00 0.00 27 1013.7
20260501214726 84 140 4.0 9.0 0.00 0.00 0.00 27 1013.8
20260501214325 85 135 5.0 10.0 0.00 0.00 0.00 28 1013.7
20260501213924 86 196 2.0 8.0 0.00 0.00 0.00 28 1013.7
20260501213524 86 137 8.0 8.0 0.00 0.00 0.00 28 1013.8
20260501213121 87 184 6.0 7.0 0.00 0.00 0.00 27 1013.9
20260501212720 86 164 2.0 4.0 0.00 0.00 0.00 27 1013.8
20260501212318 85 194 6.0 7.0 0.00 0.00 0.00 28 1013.9
20260501211917 85 107 3.0 9.0 0.00 0.00 0.00 28 1014.0
20260501211516 84 135 5.0 9.0 0.00 0.00 0.00 28 1014.0
20260501211115 85 180 3.0 10.0 0.00 0.00 0.00 28 1014.0
20260501210312 84 110 9.0 12.0 0.00 0.00 0.00 28 1014.0
20260501205911 86 135 5.0 7.0 0.00 0.00 0.00 28 1014.1
20260501205510 86 135 4.0 9.0 0.00 0.00 0.00 28 1014.1
20260501204708 85 180 5.0 8.0 0.00 0.00 0.00 28 1014.1
20260501204305 85 148 7.0 13.0 0.00 0.00 0.00 28 1014.2
20260501203904 85 144 3.0 7.0 0.00 0.00 0.00 28 1014.3
20260501203503 88 45 1.0 4.0 0.00 0.00 0.00 29 1014.2
20260501203102 89 301 1.0 3.0 0.00 0.00 0.00 29 1014.3
20260501202259 88 261 1.0 3.0 0.00 0.00 0.00 29 1014.3
20260501201857 88 48 1.0 1.0 0.00 0.00 0.00 30 1014.4
20260501201456 88 290 2.0 4.0 0.00 0.00 0.00 30 1014.4
20260501201055 86 289 0.0 6.0 0.00 0.00 0.00 30 1014.4
20260501200253 85 186 2.0 5.0 0.00 0.00 0.00 30 1014.5
20260501195853 85 92 1.0 4.0 0.00 0.00 0.00 30 1014.6
20260501194648 83 135 6.0 7.0 0.00 0.00 0.00 31 1014.8
20260501194246 84 78 4.0 5.0 0.00 0.00 0.00 31 1014.7
20260501193444 85 135 1.0 4.0 0.00 0.00 0.00 31 1014.9
20260501193042 84 274 2.0 3.0 0.00 0.00 0.00 31 1014.9
20260501192641 84 294 3.0 5.0 0.00 0.00 0.00 31 1014.9
20260501191839 81 276 3.0 3.0 0.00 0.00 0.00 31 1015.0
20260501191036 81 22 1.0 3.0 0.00 0.00 0.00 32 1015.1
20260501190634 81 288 1.0 3.0 0.00 0.00 0.00 32 1015.2
20260501190235 81 289 0.0 1.0 0.00 0.00 0.00 32 1015.3
20260501185433 78 167 2.0 3.0 0.00 0.00 0.00 32 1015.6
20260501184629 77 112 5.0 7.0 0.00 0.00 0.00 33 1015.6
20260501183825 77 213 1.0 7.0 0.00 0.00 0.00 33 1015.7
20260501183023 79 106 1.0 4.0 0.00 0.00 0.00 34 1015.8
20260501182221 77 135 1.0 4.0 0.00 0.00 0.00 35 1015.8
20260501181819 77 50 2.0 5.0 0.00 0.00 0.00 36 1015.9
20260501181418 77 5 1.0 2.0 0.00 0.00 0.00 36 1016.0
20260501181017 77 30 0.0 3.0 0.00 0.00 0.00 37 1016.0
20260501180616 76 348 0.0 5.0 0.00 0.00 0.00 38 1016.0
20260501180214 74 117 4.0 6.0 0.00 0.00 0.00 39 1016.1
20260501175813 75 99 3.0 7.0 0.00 0.00 0.00 39 1016.1
20260501175010 75 135 3.0 3.0 0.00 0.00 0.00 40 1016.2
20260501174610 74 321 0.0 2.0 0.00 0.00 0.00 41 1016.2
20260501174208 73 306 0.0 3.0 0.00 0.00 0.00 41 1016.3
20260501173405 71 215 1.0 3.0 0.00 0.00 0.00 42 1016.3
20260501172602 70 270 1.0 3.0 0.00 0.00 0.00 43 1016.3
20260501172201 70 296 2.0 3.0 0.00 0.00 0.00 43 1016.3
20260501171449 70 227 2.0 2.0 0.00 0.00 0.00 44 1016.3
20260501171359 70 227 2.0 2.0 0.00 0.00 0.00 44 1016.3
20260501171003 69 234 0.0 2.0 0.00 0.00 0.00 44 1016.4
20260501170602 69 198 2.0 3.0 0.00 0.00 0.00 45 1016.4
20260501163747 66 135 4.0 4.0 0.00 0.00 0.00 47 1016.4
20260501163346 66 81 0.0 2.0 0.00 0.00 0.00 48 1016.5
20260501162945 66 281 1.0 2.0 0.00 0.00 0.00 48 1016.4
20260501162544 65 135 1.0 3.0 0.00 0.00 0.00 48 1016.4
20260501162142 65 135 4.0 4.0 0.00 0.00 0.00 48 1016.3
20260501161740 65 180 0.0 0.0 0.00 0.00 0.00 48 1016.3
20260501161340 64 310 0.0 1.0 0.00 0.00 0.00 49 1016.3
20260501160938 64 330 1.0 1.0 0.00 0.00 0.00 49 1016.3
20260501160537 64 190 1.0 3.0 0.00 0.00 0.00 49 1016.3
20260501160136 64 186 0.0 4.0 0.00 0.00 0.00 50 1016.3
20260501155735 63 222 2.0 3.0 0.00 0.00 0.00 50 1016.2
20260501155333 63 184 2.0 2.0 0.00 0.00 0.00 50 1016.3
20260501154932 63 197 1.0 2.0 0.00 0.00 0.00 50 1016.3
20260501154530 62 42 0.0 1.0 0.00 0.00 0.00 51 1016.2
20260501154131 62 45 0.0 2.0 0.00 0.00 0.00 51 1016.2
20260501153327 62 38 4.0 4.0 0.00 0.00 0.00 51 1016.0
20260501152925 61 42 3.0 4.0 0.00 0.00 0.00 52 1016.0
20260501152524 61 74 3.0 4.0 0.00 0.00 0.00 52 1016.0
20260501152123 61 119 3.0 4.0 0.00 0.00 0.00 52 1016.0
20260501151722 60 117 1.0 3.0 0.00 0.00 0.00 53 1016.0
20260501151321 60 135 1.0 5.0 0.00 0.00 0.00 53 1015.9
20260501150919 60 90 4.0 5.0 0.00 0.00 0.00 53 1015.9
20260501150517 60 146 3.0 5.0 0.00 0.00 0.00 53 1016.0
20260501150116 59 112 2.0 4.0 0.00 0.00 0.00 53 1015.9
20260501145715 59 87 2.0 2.0 0.00 0.00 0.00 53 1015.9
20260501145314 59 215 1.0 2.0 0.00 0.00 0.00 54 1015.9
20260501144918 59 185 1.0 3.0 0.00 0.00 0.00 54 1015.9
20260501144512 59 123 2.0 2.0 0.00 0.00 0.00 54 1015.9
20260501143712 59 76 1.0 4.0 0.00 0.00 0.00 54 1015.8
20260501142906 58 135 2.0 3.0 0.00 0.00 0.00 55 1015.8